| time (UTC) | temp F | wind direction | speed MPH | gust MPH | rain 1hr in | rain 24hr in | rain mn in | humidity % | barometer mb |
| 20260831193003 | 81 | 278 | 1.0 | 8.0 | 0.00 | 0.00 | 0.00 | 68 | 1002.8 |
| 20260831191502 | 82 | 252 | 3.0 | 9.0 | 0.00 | 0.00 | 0.00 | 66 | 1002.9 |
| 20260831190001 | 83 | 249 | 0.0 | 5.0 | 0.00 | 0.00 | 0.00 | 65 | 1002.9 |
| 20260831184502 | 82 | 256 | 0.0 | 1.0 | 0.00 | 0.00 | 0.00 | 67 | 1002.9 |
| 20260831183101 | 82 | 243 | 0.0 | 3.0 | 0.00 | 0.00 | 0.00 | 67 | 1002.9 |
| 20260831181603 | 81 | 257 | 0.0 | 5.0 | 0.00 | 0.00 | 0.00 | 68 | 1003.0 |
| 20260831180059 | 82 | 257 | 0.0 | 5.0 | 0.00 | 0.00 | 0.00 | 67 | 1003.0 |
| 20260831174621 | 82 | 158 | 0.0 | 2.0 | 0.00 | 0.00 | 0.00 | 66 | 1003.0 |
| 20260831173055 | 81 | 235 | 0.0 | 4.0 | 0.00 | 0.00 | 0.00 | 68 | 1003.0 |
| 20260831171554 | 81 | 167 | 0.0 | 2.0 | 0.00 | 0.00 | 0.00 | 69 | 1003.0 |
| 20260831170055 | 80 | 190 | 0.0 | 2.0 | 0.00 | 0.00 | 0.00 | 69 | 1003.0 |
| 20260831164554 | 79 | 87 | 0.0 | 2.0 | 0.00 | 0.00 | 0.00 | 73 | 1002.8 |
| 20260831163043 | 77 | 74 | 0.0 | 2.0 | 0.00 | 0.00 | 0.00 | 74 | 1002.7 |
| 20260831161541 | 76 | 121 | 0.0 | 2.0 | 0.00 | 0.00 | 0.00 | 77 | 1002.7 |
| 20260831160041 | 76 | 106 | 0.0 | 3.0 | 0.00 | 0.00 | 0.00 | 75 | 1002.7 |
| 20260831154538 | 76 | 240 | 0.0 | 1.0 | 0.00 | 0.00 | 0.00 | 77 | 1002.6 |
| 20260831153036 | 75 | 243 | 0.0 | 1.0 | 0.00 | 0.00 | 0.00 | 77 | 1002.5 |
| 20260831151540 | 75 | 247 | 0.0 | 1.0 | 0.00 | 0.00 | 0.00 | 78 | 1002.4 |
| 20260831150028 | 72 | 247 | 0.0 | 0.0 | 0.00 | 0.00 | 0.00 | 82 | 1002.5 |
| 20260831144525 | 71 | 247 | 0.0 | 0.0 | 0.00 | 0.00 | 0.00 | 86 | 1002.3 |
| 20260831143024 | 69 | 247 | 0.0 | 1.0 | 0.00 | 0.00 | 0.00 | 87 | 1002.2 |
| 20260831141522 | 67 | 247 | 0.0 | 0.0 | 0.00 | 0.00 | 0.00 | 87 | 1002.0 |
| 20260831140020 | 67 | 247 | 0.0 | 0.0 | 0.00 | 0.00 | 0.00 | 87 | 1001.8 |
| 20260831134520 | 67 | 247 | 0.0 | 0.0 | 0.00 | 0.00 | 0.00 | 87 | 1001.6 |
| 20260831133018 | 67 | 247 | 0.0 | 0.0 | 0.00 | 0.00 | 0.00 | 87 | 1001.4 |
| 20260831131518 | 67 | 247 | 0.0 | 0.0 | 0.00 | 0.00 | 0.00 | 87 | 1001.4 |
| 20260831130014 | 67 | 247 | 0.0 | 0.0 | 0.00 | 0.00 | 0.00 | 86 | 1001.3 |
| 20260831124514 | 67 | 247 | 0.0 | 0.0 | 0.00 | 0.00 | 0.00 | 86 | 1001.3 |
| 20260831123013 | 67 | 247 | 0.0 | 0.0 | 0.00 | 0.00 | 0.00 | 86 | 1001.2 |
| 20260831121512 | 67 | 247 | 0.0 | 0.0 | 0.00 | 0.00 | 0.00 | 86 | 1001.2 |
| 20260831120018 | 67 | 247 | 0.0 | 0.0 | 0.00 | 0.00 | 0.00 | 86 | 1001.2 |
| 20260831114511 | 67 | 247 | 0.0 | 0.0 | 0.00 | 0.00 | 0.00 | 85 | 1001.2 |
| 20260831113010 | 68 | 247 | 0.0 | 0.0 | 0.00 | 0.00 | 0.00 | 85 | 1001.2 |
| 20260831111510 | 67 | 247 | 0.0 | 0.0 | 0.00 | 0.00 | 0.00 | 84 | 1001.3 |
| 20260831110008 | 67 | 247 | 0.0 | 0.0 | 0.00 | 0.00 | 0.00 | 84 | 1001.3 |
| 20260831104509 | 67 | 247 | 0.0 | 0.0 | 0.00 | 0.00 | 0.00 | 83 | 1001.3 |
| 20260831103012 | 68 | 247 | 0.0 | 0.0 | 0.00 | 0.00 | 0.00 | 83 | 1001.4 |
| 20260831101508 | 68 | 246 | 0.0 | 0.0 | 0.00 | 0.00 | 0.00 | 83 | 1001.4 |
| 20260831100004 | 68 | 246 | 0.0 | 0.0 | 0.00 | 0.00 | 0.00 | 83 | 1001.4 |
| 20260831094507 | 68 | 246 | 0.0 | 0.0 | 0.00 | 0.00 | 0.00 | 82 | 1001.3 |
| 20260831093149 | 69 | 246 | 0.0 | 0.0 | 0.00 | 0.00 | 0.00 | 81 | 1001.3 |
| 20260831091558 | 69 | 246 | 0.0 | 0.0 | 0.00 | 0.00 | 0.00 | 81 | 1001.2 |
| 20260831090058 | 70 | 246 | 0.0 | 0.0 | 0.00 | 0.00 | 0.00 | 80 | 1001.3 |
| 20260831084644 | 71 | 246 | 0.0 | 0.0 | 0.00 | 0.00 | 0.00 | 78 | 1001.3 |
| 20260831083106 | 71 | 246 | 0.0 | 0.0 | 0.00 | 0.00 | 0.00 | 76 | 1001.3 |
| 20260831081555 | 71 | 246 | 0.0 | 1.0 | 0.00 | 0.00 | 0.00 | 76 | 1001.3 |
| 20260831080116 | 71 | 248 | 0.0 | 0.0 | 0.00 | 0.00 | 0.00 | 76 | 1001.3 |
| 20260831074552 | 70 | 250 | 0.0 | 0.0 | 0.00 | 0.00 | 0.00 | 79 | 1001.3 |
| 20260831073049 | 70 | 250 | 0.0 | 0.0 | 0.00 | 0.00 | 0.00 | 79 | 1001.1 |
| 20260831071550 | 70 | 250 | 0.0 | 0.0 | 0.00 | 0.00 | 0.00 | 79 | 1001.1 |
| 20260831070046 | 70 | 250 | 0.0 | 0.0 | 0.00 | 0.00 | 0.00 | 78 | 1001.0 |
| 20260831064553 | 70 | 250 | 0.0 | 0.0 | 0.00 | 0.00 | 0.00 | 77 | 1000.9 |
| 20260831063101 | 70 | 251 | 0.0 | 0.0 | 0.00 | 0.00 | 0.00 | 78 | 1001.0 |
| 20260831061543 | 70 | 251 | 0.0 | 0.0 | 0.00 | 0.00 | 0.00 | 78 | 1001.1 |
| 20260831060043 | 71 | 251 | 0.0 | 0.0 | 0.00 | 0.00 | 0.00 | 79 | 1001.0 |
| 20260831054542 | 71 | 251 | 0.0 | 0.0 | 0.00 | 0.00 | 0.00 | 78 | 1000.9 |
| 20260831053053 | 71 | 251 | 0.0 | 2.0 | 0.00 | 0.00 | 0.00 | 78 | 1001.0 |
| 20260831051543 | 72 | 249 | 0.0 | 2.0 | 0.00 | 0.00 | 0.00 | 77 | 1000.9 |
| 20260831050041 | 72 | 249 | 0.0 | 5.0 | 0.00 | 0.00 | 0.00 | 77 | 1001.0 |
| 20260831044541 | 72 | 241 | 0.0 | 3.0 | 0.00 | 0.00 | 0.00 | 76 | 1000.9 |
| 20260831043048 | 72 | 210 | 0.0 | 2.0 | 0.00 | 0.00 | 0.00 | 75 | 1000.8 |
| 20260831041548 | 72 | 246 | 0.0 | 4.0 | 0.00 | 0.00 | 0.00 | 75 | 1000.7 |
| 20260831040042 | 72 | 244 | 0.0 | 4.0 | 0.00 | 0.00 | 0.00 | 74 | 1000.5 |
| 20260831034539 | 73 | 243 | 0.0 | 2.0 | 0.00 | 0.00 | 0.00 | 74 | 1000.3 |
| 20260831033043 | 72 | 254 | 0.0 | 4.0 | 0.00 | 0.00 | 0.00 | 76 | 1000.1 |
| 20260831031536 | 73 | 252 | 0.0 | 2.0 | 0.00 | 0.00 | 0.00 | 76 | 999.9 |
| 20260831030046 | 73 | 250 | 0.0 | 5.0 | 0.00 | 0.00 | 0.00 | 76 | 999.9 |
| 20260831024543 | 74 | 244 | 0.0 | 2.0 | 0.00 | 0.00 | 0.00 | 74 | 999.7 |
| 20260831023035 | 75 | 243 | 0.0 | 3.0 | 0.00 | 0.00 | 0.00 | 72 | 999.7 |
| 20260831021534 | 75 | 249 | 0.0 | 2.0 | 0.00 | 0.00 | 0.00 | 72 | 999.6 |
| 20260831020034 | 76 | 242 | 0.0 | 1.0 | 0.00 | 0.00 | 0.00 | 72 | 999.5 |
| 20260831014535 | 76 | 230 | 0.0 | 5.0 | 0.00 | 0.00 | 0.00 | 73 | 999.5 |
| 20260831013033 | 76 | 243 | 0.0 | 6.0 | 0.00 | 0.00 | 0.00 | 74 | 999.5 |
| 20260831011531 | 77 | 241 | 0.0 | 4.0 | 0.00 | 0.00 | 0.00 | 74 | 999.6 |
| 20260831010032 | 78 | 240 | 0.0 | 4.0 | 0.00 | 0.00 | 0.00 | 73 | 999.5 |
| 20260831004536 | 78 | 244 | 0.0 | 9.0 | 0.00 | 0.00 | 0.00 | 74 | 999.5 |
| 20260831003032 | 80 | 249 | 1.0 | 8.0 | 0.00 | 0.00 | 0.00 | 72 | 999.4 |
| 20260831001531 | 81 | 242 | 2.0 | 11.0 | 0.00 | 0.00 | 0.00 | 69 | 999.4 |
| 20260831000033 | 82 | 227 | 0.0 | 7.0 | 0.00 | 0.00 | 0.00 | 67 | 999.5 |
| 20260830234530 | 82 | 242 | 1.0 | 9.0 | 0.00 | 0.00 | 0.00 | 66 | 999.5 |
| 20260830233029 | 83 | 183 | 0.0 | 6.0 | 0.00 | 0.00 | 0.00 | 65 | 999.5 |
| 20260830231527 | 83 | 226 | 0.0 | 11.0 | 0.00 | 0.00 | 0.00 | 65 | 999.5 |
| 20260830230027 | 84 | 243 | 1.0 | 11.0 | 0.00 | 0.00 | 0.00 | 65 | 999.5 |
| 20260830224526 | 83 | 178 | 1.0 | 7.0 | 0.00 | 0.00 | 0.00 | 66 | 999.8 |
| 20260830223031 | 83 | 248 | 0.0 | 9.0 | 0.00 | 0.00 | 0.00 | 66 | 999.8 |
| 20260830221523 | 82 | 243 | 1.0 | 10.0 | 0.00 | 0.00 | 0.00 | 67 | 1000.0 |
| 20260830220030 | 82 | 250 | 0.0 | 8.0 | 0.00 | 0.00 | 0.00 | 67 | 1000.3 |
| 20260830214524 | 83 | 240 | 4.0 | 8.0 | 0.00 | 0.00 | 0.00 | 63 | 1000.4 |
| 20260830213021 | 84 | 246 | 0.0 | 9.0 | 0.00 | 0.00 | 0.00 | 63 | 1000.6 |
| 20260830211521 | 83 | 244 | 0.0 | 9.0 | 0.00 | 0.00 | 0.00 | 65 | 1000.8 |
| 20260830210020 | 84 | 250 | 3.0 | 10.0 | 0.00 | 0.00 | 0.00 | 64 | 1000.9 |
| 20260830204520 | 83 | 230 | 2.0 | 9.0 | 0.00 | 0.00 | 0.00 | 66 | 1000.9 |
| 20260830203020 | 83 | 234 | 4.0 | 11.0 | 0.00 | 0.00 | 0.00 | 66 | 1001.0 |
| 20260830201518 | 84 | 261 | 1.0 | 8.0 | 0.00 | 0.00 | 0.00 | 66 | 1001.0 |
| 20260830200019 | 85 | 223 | 1.0 | 10.0 | 0.00 | 0.00 | 0.00 | 63 | 1001.0 |
| 20260830194518 | 84 | 245 | 1.0 | 9.0 | 0.00 | 0.00 | 0.00 | 63 | 1001.0 |